Tracking 34142 objects as of 18-May-2026
HD Live streaming from Space Station
objects crossing your sky now

KUIPER-00416

Track KUIPER-00416 now!
10-day predictions
KUIPER-00416 is classified as:


NORAD ID: 68931
Int'l Code: 2026-098N
Perigee: 463.1 km
Apogee: 465.2 km
Inclination: 51.9 °
Period: 93.7 minutes
Semi major axis: 6835 km
RCS: Unknown
Launch date: April 30, 2026
Source: United States (US)
Launch site: AIR FORCE EASTERN TEST RANGE (AFETR)
Your satellite tracking list
Your tracking list is empty




NASA's NSSDC Master Catalog

Two Line Element Set (TLE):
1 68931U 26098N   26137.61455388  .00013555  00000-0  38699-3 0  9998
2 68931  51.8749 214.8608 0001560  85.2727 274.8437 15.36317366  2654
Source of the keplerian elements: AFSPC